COSMOS 2251 DEB, 34454

Orbit data source: Space-Track

COSMOS 2251 DEB, 34454 is space debris in LEO originally from a launch on Wed, 16 Jun 1993 UTC launched from the Plesetsk Missile And Space Complex (PKMTR). The debris from Iridium 33, an American commercial communications satellite, has been tracked extensively since its accidental collision with the defunct Russian satellite Cosmos 2251 in 2009. This event, occurring at high speed in low Earth orbit (LEO), generated thousands of pieces of space debris, significantly increasing the risk of further collisions. The Iridium 33 debris cloud has impacted space traffic management and orbital debris mitigation strategies, making it a subject of ongoing study in space situational awareness.

Loading next visibility...
Identifier
34454, 1993-036SX
Orbit
LEO
Country
Flag of CISCIS
Related business
Manufacturer
Unknown
Mission
Spacecraft
Bus & Motor
Unknown
Mass
Unknown
Launch date (UTC)
1993-06-16 (33 years ago)
Launch vehicle
Unknown
Launch site
Plesetsk Missile And Space Complex (PKMTR)
Object type
Payload
Rocket body
Debris
Shape & HBR
Unknown shape, 0.1 m
Radar Cross Section
Medium (>0.1 m² and <1 m²)

Expand to show TLE details & history
Last TLE update: 1 day ago

TLE from 1 day ago
0 COSMOS 2251 DEB
1 34454U 93036SX  26207.30843859  .00000460  00000-0  15608-3 0  9991
2 34454  74.0561 222.1030 0036231 232.2048 127.5825 14.39096826913125
Epoch: 2026-07-26T07:24Z
TLE epoch observation values (Epoch: 2026-07-26T07:24:09.094Z)
Latitude
0.00004°
Longitude
167.05689°
Altitude
779.938 km
Speed
7.456 km/s
True Right ascension
14h 48m 24s
True Declination
0° 00' 00"
Sunlit
Object was in daylight at epoch
Visualization orbit readout
Latitude
Unknown
Longitude
Unknown
Altitude
Unknown
Speed
Unknown
Apparent Right ascension
Unknown
Apparent Declination
Unknown
Sunlit
N/A
Visualization observer readout
Local Sidereal Time
00:03:08
Azimuth
Unknown
Elevation
Unknown
Doppler factor
Unknown
Orbital elements
Apogee altitude
784.962 km
Perigee altitude
733.244 km
Semi-major axis
7,137.24 km
Eccentricity
0.00362
Inclination
74.0561°
RAAN
222.103°
Arg. of periapsis
232.2048°
True anomaly
127.91061°
Mean anomaly
127.5825°
Eccentric anomaly
127.74665°
Mean motion
3.59955 °/min
Orbital period
100.01 mins
BSTAR
0.00015608
Loading maneuver chart data...
Computing Atmospheric mass density...
Loading historical data...
Loading historical data...
Loading historical data...
Loading historical data...
Loading historical data...
Loading historical data...
Loading historical data...

Documentation

Showing up to 5 results
|